Regional Weather Roundup
Issued by NWS

Home | Current Version | Previous Version | Graphics & Text | Print | Product List | Glossary Off
Versions: 1 2 3 4 5 6 7 8 9 10 11 12 13 14 15 16 17 18 19 20 21 22 23 24 25 26 27 28 29 30 31 32 33 34 35 36 37 38 39 40 41 42 43 44 45 46 47 48 49 50

000
ASUS43 KFSD 220010
RWRSD

WEATHER ROUNDUP FOR SOUTH DAKOTA
NATIONAL WEATHER SERVICE SIOUX FALLS SD
700 PM CDT MON AUG 21 2017

NOTE: "FAIR" INDICATES FEW OR NO CLOUDS BELOW 12,000 FEET WITH NO
SIGNIFICANT WEATHER AND/OR OBSTRUCTIONS TO VISIBILITY.


SDZ001>005-009-010-012>017-220100-
NORTHWEST AND NORTH CENTRAL SOUTH DAKOTA

CITY           SKY/WX    TMP DP  RH WIND       PRES   REMARKS
BUFFALO          N/A     77  37  23 N16       30.08R
FAITH            N/A     76  41  28 N20       30.09R
MOBRIDGE       SUNNY     76  49  38 N15G22    30.01R
$$

SDZ012>016-024>037-041>051-057-063-072>074-220100-
SOUTHWEST AND SOUTH CENTRAL SOUTH DAKOTA

CITY           SKY/WX    TMP DP  RH WIND       PRES   REMARKS
RAPID CTY ARPT SUNNY     78  38  23 N17       30.14R
PIERRE         SUNNY     78  46  32 N17G26    30.01R
CUSTER         SUNNY     69  37  30 E18       30.24R
ELLSWORTH AFB  SUNNY     78  38  23 N15       30.14R
PHILIP         SUNNY     81  40  23 N18G28    30.06R
PINE RIDGE     SUNNY     79  45  29 N14       30.13R
SPEARFISH      FAIR      75  36  23 NE8G17    30.19S
WINNER         FAIR      78  66  66 N10       30.03R
$$

SDZ004>011-016>023-039-040-220100-
NORTHEAST SOUTH DAKOTA

CITY           SKY/WX    TMP DP  RH WIND       PRES   REMARKS
ABERDEEN       SUNNY     77  54  44 N15       29.95R
WATERTOWN      MOSUNNY   72  62  71 NW12      29.95R
BROOKINGS      CLOUDY    71  63  75 NW7       29.98R
SISSETON         N/A     74  61  63 NW12      29.90R
$$

SDZ017-020-022-023-036>040-048>070-220100-
SOUTHEAST SOUTH DAKOTA

CITY           SKY/WX    TMP DP  RH WIND       PRES   REMARKS
SIOUX FALLS    PTSUNNY   71  66  84 SW6       29.98S
HURON          PTSUNNY   79  65  62 N10       29.96R
CHAMBERLAIN    SUNNY     79  68  70 W8        30.00S
MITCHELL       SUNNY     75  65  70 NW3       29.99R
YANKTON        CLOUDY    70  65  84 NE7       29.98F
$$

ABBREVIATIONS USED IN REMARKS
   TC - TEMPERATURE IN CELSIUS
  WCI - WIND CHILL INDEX
   HX - HEAT INDEX
  VSB - VISIBILITY





USA.gov is the U.S. government's official web portal to all federal, state and local government web resources and services.